Regional Weather Roundup
Issued by NWS Green Bay, WI

Home | Current Version | Previous Version | Graphics & Text | Print | Product List | Glossary Off
Versions: 1 2 3 4 5 6 7 8 9 10 11 12 13 14 15 16 17 18 19 20 21 22 23 24 25 26 27 28 29 30 31 32 33 34 35 36 37 38 39 40 41 42 43 44 45 46 47 48 49 50

000
ASUS43 KGRB 250600
RWRGRB

NORTH-CENTRAL AND NORTHEAST WISCONSIN REGIONAL WEATHER ROUNDUP
NATIONAL WEATHER SERVICE GREEN BAY WI
100 AM CDT MON MAY 25 2015

WIZ005-009-010>012-018-019-250700-
NORTH CENTRAL WISCONSIN

CITY           SKY/WX    TMP DP  RH WIND       PRES   REMARKS
IRONWOOD       CLOUDY    57  55  94 E5        29.87F
MANITOWISH WTR NOT AVBL
ARBOR VITAE    NOT AVBL
EAGLE RIVER    NOT AVBL
LAND O LAKES   NOT AVBL
RHINELANDER    LGT RAIN  56  54  93 E10       29.89F
PHILLIPS       NOT AVBL
ANTIGO         NOT AVBL
TOMAHAWK       NOT AVBL
MERRILL        NOT AVBL
$$

WIZ013-073-250700-
NORTHEAST WISCONSIN

CITY           SKY/WX    TMP DP  RH WIND       PRES   REMARKS
IRON MOUNTAIN  RAIN      55  54  96 E6        29.93F FOG
MARINETTE      CLOUDY    55  52  88 E9        29.92F
$$

WIZ017-030-035>037-045-250700-
CENTRAL WISCONSIN

CITY           SKY/WX    TMP DP  RH WIND       PRES   REMARKS
MEDFORD        NOT AVBL
WAUSAU         LGT RAIN  55  54  96 E9        29.85F
MOSINEE        NOT AVBL
MARSHFIELD     CLOUDY    57  54  89 E10       29.84F
WISC RAPIDS    LGT RAIN  57  54  89 SE7       29.85F
STEVENS POINT  NOT AVBL
WAUPACA        NOT AVBL
SHAWANO        NOT AVBL
CLINTONVILLE   NOT AVBL
$$

WIZ038-039-048-051-250700-
FOX VALLEY

CITY           SKY/WX    TMP DP  RH WIND       PRES   REMARKS
NWS GREEN BAY  LGT RAIN  59  57  93 SE6       29.89F FOG
APPLETON       NOT AVBL
OSHKOSH        CLOUDY    59  57  93 SE7       29.86F FOG
FOND DU LAC    CLOUDY    59  56  89 SE7       29.86F
$$

WIZ022-050-052-250700-
EAST CENTRAL WISCONSIN

CITY           SKY/WX    TMP DP  RH WIND       PRES   REMARKS
STURGEON BAY   CLOUDY    57  54  88 E12G17    29.93F
MANITOWOC      NOT AVBL
SHEBOYGAN      LGT RAIN  54  54 100 CALM      29.90F FOG
$$

LMZ563-521-522-541>543-250700-
LAKESHORE

STATION/POSITION TIME  TEMP    WIND        PRES    VSBY  WAVE
                       AIR SEA DIR/SP/G                  HT/PER
                 (UTC) (F)     (DEG/KT/KT) (MB)    (MI)  (FT/S)
SHEBOYGAN LKSHOR 0500   52      30/  3/  3 1013.7F
KEWAUNEE LKSHORE 0500   51      50/  5/  8 1013.3F
NORTHPORT PIER   0500   49      90/  5/  8 1014.9F
N MID LAKE BUOY  0450   45 36   80/ 10/ 10 1016.1F         1/ 4
SISTER BAY LKSHO 0547   54     130/  9/ 15   N/A
CHAMBERS ISLAND  0500   54      60/  7/ 10 1014.6F
MENOMINEE LKSHOR 0500   51     330/  7/  8 1014.7F
$$



USA.gov is the U.S. government's official web portal to all federal, state and local government web resources and services.